User: anonymous   Login
Location: NJAA Observatory
(40.6819°N, 74.8979°W)
Time: 16:41:12
(UTC-04:00)
Language:

Cosmos 2237 Rocket - Orbit

View from above orbital plane
View from above orbital plane
View from above satellite
View from above satellite

Ground track
Ground track

The orbit data is extracted from the following two-line orbital elements,

1 22566U 93016B   16121.55667419 -.00000071  00000-0 -11952-4 0  9996
2 22566  71.0092 213.0434 0009027  29.7945 330.3690 14.14929470192909
Epoch (UTC): 30 April 2016 13:21:36
Eccentricity: 0.0009027
inclination: 71.0092°
perigee height: 836 km
apogee height: 849 km
right ascension of ascending node: 213.0434°
argument of perigee: 29.7945°
revolutions per day: 14.14929470
mean anomaly at epoch: 330.3690°
orbit number at epoch: 19290

The dashed part of the orbit path shows where the satellite is in the earth's shadow,  

DLR